DW8426 Weather Reports


time (UTC)temp
C
wind
direction
speed
KPH
gust
KPH
rain 1hr
cm
rain 24hr
cm
rain mn
cm
humidity
%
barometer
mb
20260906154606 28 31 3.2 16.1 0.00 0.00 0.00 71 1017.5
20260906153129 27 317 4.8 14.5 0.00 0.00 0.00 72 1017.1
20260906151604 27 360 4.8 16.1 0.00 0.00 0.00 73 1016.9
20260906150110 27 360 3.2 12.9 0.00 0.00 0.00 76 1016.7
20260906144608 26 77 1.6 9.7 0.00 0.00 0.00 78 1016.6
20260906143106 26 360 1.6 9.7 0.00 0.00 0.00 80 1016.6
20260906141622 25 360 3.2 12.9 0.00 0.00 0.00 81 1016.5
20260906140107 25 344 3.2 9.7 0.00 0.00 0.00 82 1016.3
20260906134606 24 32 1.6 12.9 0.00 0.00 0.00 83 1016.3
20260906133112 24 352 3.2 9.7 0.00 0.00 0.00 83 1016.4
20260906131610 23 5 1.6 6.4 0.00 0.00 0.00 85 1016.3
20260906130109 23 336 0.0 6.4 0.00 0.00 0.00 86 1016.5
20260906124607 23 346 0.0 4.8 0.00 0.00 0.00 86 1016.3
20260906123110 23 0 0.0 3.2 0.00 0.00 0.00 86 1016.2
20260906121616 23 0 0.0 3.2 0.00 0.00 0.00 86 1016.0
20260906120127 23 0 0.0 3.2 0.00 0.00 0.00 85 1015.9
20260906114604 23 65 0.0 3.2 0.00 0.00 0.00 85 1015.5
20260906113105 23 0 0.0 3.2 0.00 0.00 0.00 85 1015.5
20260906111607 23 327 0.0 3.2 0.00 0.00 0.00 84 1015.5
20260906110107 24 0 0.0 1.6 0.00 0.00 0.00 83 1015.5
20260906104608 24 352 0.0 3.2 0.00 0.00 0.00 83 1015.3
20260906103113 24 0 0.0 1.6 0.00 0.00 0.00 84 1015.2
20260906101625 25 0 0.0 3.2 0.00 0.00 0.00 83 1015.1
20260906100108 25 0 0.0 3.2 0.00 0.00 0.00 83 1014.9
20260906094606 25 0 0.0 3.2 0.00 0.00 0.00 83 1014.7
20260906093109 25 0 0.0 4.8 0.00 0.00 0.00 83 1014.8
20260906091604 25 0 0.0 4.8 0.00 0.00 0.00 82 1014.8
20260906090104 25 0 0.0 4.8 0.00 0.00 0.00 82 1014.8
20260906084605 26 0 0.0 4.8 0.00 0.00 0.00 82 1014.5
20260906083106 26 0 0.0 4.8 0.00 0.00 0.00 82 1014.3
20260906081606 26 28 0.0 4.8 0.00 0.00 0.00 83 1014.4
20260906080106 26 11 0.0 4.8 0.00 0.00 0.00 82 1014.2
20260906074602 27 0 0.0 3.2 0.00 0.00 0.00 82 1014.3
20260906073104 27 0 0.0 8.0 0.00 0.00 0.00 82 1014.4
20260906071607 27 0 0.0 4.8 0.00 0.00 0.00 81 1014.5
20260906070108 27 0 0.0 6.4 0.00 0.00 0.00 81 1014.4
20260906064606 27 0 0.0 4.8 0.00 0.00 0.00 80 1014.3
20260906063106 27 0 0.0 3.2 0.00 0.00 0.00 80 1014.4
20260906061606 27 0 0.0 4.8 0.00 0.00 0.00 79 1014.3
20260906060136 27 342 0.0 0.0 0.00 0.00 0.00 78 1014.3
20260906054617 27 0 0.0 0.0 0.00 0.00 0.00 76 1014.3
20260906053105 27 0 0.0 0.0 0.00 0.00 0.00 75 1014.3
20260906051607 27 0 0.0 0.0 0.00 0.00 0.00 75 1014.4
20260906050107 27 0 0.0 0.0 0.00 0.00 0.00 74 1014.3
20260906044605 27 0 0.0 0.0 0.00 0.00 0.00 74 1014.2
20260906043104 28 0 0.0 0.0 0.00 0.00 0.00 73 1014.2
20260906041607 28 0 0.0 0.0 0.00 0.00 0.00 73 1014.0
20260906040109 28 0 0.0 0.0 0.00 0.00 0.00 72 1013.9
20260906034607 28 0 0.0 0.0 0.00 0.00 0.00 71 1013.8
20260906033106 28 0 0.0 0.0 0.00 0.00 0.00 71 1013.7
20260906031602 28 0 0.0 0.0 0.00 0.00 0.00 69 1013.6
20260906030101 29 0 0.0 0.0 0.00 0.00 0.00 68 1013.4
20260906024621 29 0 0.0 0.0 0.00 0.00 0.00 67 1013.2
20260906023104 30 0 0.0 0.0 0.00 0.00 0.00 66 1013.0
20260906021606 30 0 0.0 0.0 0.00 0.00 0.00 65 1012.8
20260906020114 30 0 0.0 0.0 0.00 0.00 0.00 64 1012.7
20260906014612 31 0 0.0 0.0 0.00 0.00 0.00 62 1012.4
20260906013108 31 0 0.0 0.0 0.00 0.00 0.00 60 1012.2
20260906011607 32 0 0.0 1.6 0.00 0.00 0.00 59 1012.1
20260906010145 32 0 0.0 1.6 0.00 0.00 0.00 58 1012.1
20260906004617 32 0 0.0 3.2 0.00 0.00 0.00 55 1012.0
20260906003105 33 0 0.0 6.4 0.00 0.00 0.00 54 1011.8
20260906001608 33 0 1.6 9.7 0.00 0.00 0.00 52 1012.0
20260906000105 33 342 1.6 6.4 0.00 0.00 0.00 51 1012.0
20260905234610 34 0 0.0 1.6 0.00 0.00 0.00 52 1011.9
20260905233103 34 0 0.0 4.8 0.00 0.00 0.00 51 1012.1
20260905231622 35 350 1.6 9.7 0.00 0.00 0.00 49 1012.1
20260905230108 35 0 0.0 6.4 0.00 0.00 0.00 47 1012.3
20260905224607 36 217 0.0 12.9 0.00 0.00 0.00 45 1012.2
20260905223105 36 277 3.2 14.5 0.00 0.00 0.00 43 1012.1
20260905221607 37 0 0.0 14.5 0.00 0.00 0.00 38 1011.9
20260905220107 39 337 6.4 16.1 0.00 0.00 0.00 38 1012.0
20260905214605 40 5 4.8 19.3 0.00 0.00 0.00 38 1012.1
20260905213104 40 116 3.2 12.9 0.00 0.00 0.00 37 1012.1
20260905211613 39 360 3.2 14.5 0.00 0.00 0.00 38 1012.0
20260905210123 38 352 4.8 19.3 0.00 0.00 0.00 38 1012.1
20260905204609 38 9 8.0 20.9 0.00 0.00 0.00 36 1012.3
20260905203101 39 314 8.0 20.9 0.00 0.00 0.00 40 1012.3
20260905201605 40 5 11.3 22.5 0.00 0.00 0.00 37 1012.4
20260905200135 40 11 9.7 20.9 0.00 0.00 0.00 38 1012.5
20260905194604 40 331 6.4 17.7 0.00 0.00 0.00 37 1012.4
20260905193103 40 348 6.4 20.9 0.00 0.00 0.00 36 1012.7
20260905191606 39 257 3.2 14.5 0.00 0.00 0.00 35 1012.9
20260905190105 38 188 3.2 9.7 0.00 0.00 0.00 37 1012.9
20260905184611 39 267 1.6 12.9 0.00 0.00 0.00 35 1013.2
20260905183106 39 259 3.2 9.7 0.00 0.00 0.00 37 1013.2
20260905181607 38 268 3.2 12.9 0.00 0.00 0.00 38 1013.3
20260905180108 38 9 4.8 14.5 0.00 0.00 0.00 39 1013.5
20260905174611 38 223 1.6 8.0 0.00 0.00 0.00 41 1013.8
20260905173105 38 290 0.0 9.7 0.00 0.00 0.00 41 1013.9
20260905171606 37 352 3.2 14.5 0.00 0.00 0.00 46 1014.0
20260905170104 37 352 1.6 14.5 0.00 0.00 0.00 45 1014.3
20260905164610 37 275 1.6 12.9 0.00 0.00 0.00 46 1014.4
20260905163109 36 275 1.6 6.4 0.00 0.00 0.00 47 1014.5
20260905161608 36 230 1.6 4.8 0.00 0.00 0.00 49 1014.6
20260905160104 35 332 1.6 9.7 0.00 0.00 0.00 49 1014.7